Regional Weather Roundup
Issued by NWS

Home | Current Version | Previous Version | Graphics & Text | Print | Product List | Glossary On
Versions: 1 2 3 4 5 6 7 8 9 10 11 12 13 14 15 16 17 18 19 20 21 22 23 24 25 26 27 28 29 30 31 32 33 34 35 36 37 38 39 40 41 42 43 44 45 46 47 48 49 50
000
ASUS43 KLSX 301107
RWRMO

WEATHER SUMMARY FOR MISSOURI
NATIONAL WEATHER SERVICE SPRINGFIELD MO
600 AM CDT FRI SEP 30 2016

NOTE: "FAIR" INDICATES FEW OR NO CLOUDS BELOW 12,000 FEET WITH NO
       SIGNIFICANT WEATHER AND/OR OBSTRUCTIONS TO VISIBILITY.
       CURRENT SKY AND/OR WEATHER CONDITIONS ARE NOT AVAILABLE FOR
       CHILLICOTHE AND FARMINGTON.

MOZ001>031-035>038-043-044-053-054-301200-
...NORTHERN AND WESTERN MISSOURI...

CITY           SKY/WX    TMP DP  RH WIND       PRES   REMARKS
KANSAS CTY INT CLEAR     50  45  83 N7        30.24S
KANSAS C DTWN  CLEAR     53  49  86 NW3       30.24S
LEE`S SUMMIT   CLEAR     51  48  89 CALM      30.24R
ST JOSEPH      CLEAR     46  44  93 N3        30.26R
CHILLICOTHE      N/A     53  49  86 N5        30.24S
KIRKSVILLE     CLEAR     53  48  83 N9        30.22S

$$
MOZ066>068-077>081-088>096-101>105-301200-
...SOUTHWEST MISSOURI...

CITY           SKY/WX    TMP DP  RH WIND       PRES   REMARKS
SPRINGFIELD    CLEAR     50  46  86 NW5       30.18S
JOPLIN         CLEAR     47  46  97 CALM      30.22S
BRANSON        CLEAR     54  48  82 CALM      30.19S

$$
MOZ032>034-039>042-045>050-055>058-069>072-301200-
...CENTRAL MISSOURI...

CITY           SKY/WX    TMP DP  RH WIND       PRES   REMARKS
COLUMBIA       CLEAR     52  51  97 N6        30.19S
JEFFERSON CITY CLEAR     54  52  93 CALM      30.18F
ROLLA          CLEAR     54  53  97 NW7       30.16S
SEDALIA        CLEAR     51  48  89 N5        30.21F
WHITEMAN AFB   CLEAR     50  50  99 N3        30.20S
OSAGE BEACH    CLEAR     53  51  93 NW3       30.20R

$$
MOZ051-052-059>065-301200-
...EAST CENTRAL MISSOURI...

CITY           SKY/WX    TMP DP  RH WIND       PRES   REMARKS
ST LOUIS INTL  CLOUDY    62  56  80 N10       30.12F
SPIRIT OF STL  CLOUDY    62  57  83 NW8       30.12F
ST CHARLES     CLOUDY    61  58  90 N8        30.12F

$$
MOZ072>076-082>087-097>100-106>115-301200-
...SOUTH CENTRAL AND SOUTHEAST MISSOURI...

CITY           SKY/WX    TMP DP  RH WIND       PRES   REMARKS
CAPE GIRARDEAU CLOUDY    60  57  89 NW5       30.08F
FARMINGTON     CLOUDY    59  56  89 NW6       30.13R
POPLAR BLUFF   CLEAR     56  55  97 NW3       30.10S
WEST PLAINS    CLEAR     55  51  86 N6        30.17S

$$



USA.gov is the U.S. government's official web portal to all federal, state and local government web resources and services.